Location: Home
(42.5358°N, 72.7383°W)
Time: 12:41:44
(UTC-05:00)

N. Korean satellite - Visible Passes

Search period start: 04 December 2022 00:00
Search period end: 14 December 2022 00:00
Orbit: 421 x 453 km, 97.3° (Epoch: 03 December)

Date Brightness Start Highest point End Pass type
(mag) Time Alt. Az. Time Alt. Az. Time Alt. Az.
04 Dec 8.1 04:43:57 10° NNE 04:47:04 33° E 04:50:09 10° SSE visible
04 Dec 8.1 06:17:26 10° NNW 06:19:16 14° WNW 06:21:05 10° W visible
04 Dec 8.2 16:45:57 10° SSW 16:49:07 37° W 16:52:20 10° NNW visible
05 Dec 9.9 04:07:00 10° ENE 04:07:55 11° E 04:08:50 10° ESE visible
05 Dec 6.7 05:37:25 10° N 05:40:39 40° WNW 05:43:49 10° SW visible
06 Dec 7.1 04:58:26 10° NNE 05:01:47 53° E 05:05:03 10° S visible
06 Dec 9.1 17:01:00 10° SSW 17:03:48 24° W 17:06:40 10° NW visible
07 Dec 9.4 04:20:25 10° NE 04:22:38 16° E 04:24:51 10° SE visible
07 Dec 7.3 05:52:16 10° NNW 05:55:10 26° WNW 05:58:01 10° SW visible
08 Dec 6.3 05:12:55 10° NNE 05:16:18 88° E 05:19:38 10° SSW visible
08 Dec 9.6 17:16:10 10° SW 17:18:23 16° W 17:20:37 10° NW visible
09 Dec 8.7 04:34:21 10° NE 04:37:11 24° E 04:39:58 10° SSE visible
09 Dec 7.8 06:07:09 10° NNW 06:09:30 18° WNW 06:11:50 10° WSW visible
10 Dec 6.3 05:27:20 10° N 05:30:40 56° WNW 05:33:55 10° SSW visible
10 Dec 10.1 17:31:55 10° WSW 17:32:51 11° W 17:33:47 10° WNW visible
11 Dec 7.8 04:48:23 10° NNE 04:51:34 37° E 04:54:39 10° SSE visible
11 Dec 8.2 06:22:15 10° NW 06:23:41 12° WNW 06:25:06 10° W visible
11 Dec 8.4 16:50:23 10° SSW 16:53:29 33° W 16:56:38 10° NNW visible
12 Dec 9.8 04:10:52 10° ENE 04:12:11 12° E 04:13:31 10° ESE visible
12 Dec 6.9 05:41:44 10° N 05:44:51 35° WNW 05:47:54 10° SW visible
13 Dec 6.8 05:02:26 10° NNE 05:05:45 60° E 05:09:01 10° S visible
13 Dec 9.3 17:05:00 10° SSW 17:07:42 22° W 17:10:27 10° NW visible
